[[{"header":{"parameterUnit":"m.s-1","parameterCategory":1,"la1":30.2992,"la2":30.254,"lo1":-89.0895,"lo2":-89.0443,"dy":0.0025,"dx":0.0025,"nx":19,"ny":19,"refTime":"2026-04-29T09:00:00:Z","depth":0,"parameterNumber":2,"parameterNumberName":"U-component_of_WINDS"},"data":[0,0,0,1.7999,1.8001,1.8104,1.8105,1.8243,1.8245,0,0,0,0,0,0,0,0,0,0,0,1.7972,1.7973,1.7999,1.8002,1.8104,1.8105,1.8243,1.8245,0,0,0,0,0,0,0,0,0,0,0,1.7971,1.7972,1.7974,1.8002,1.8104,1.8105,1.8243,1.8163,0,0,0,0,0,0,0,0,0,0,1.8062,1.8039,1.7972,1.7974,1.8003,1.8104,1.8105,1.8159,1.8168,1.8199,0,1.8227,0,1.8238,1.8254,1.8255,0,0,0,1.8,1.8032,1.8057,1.7974,1.8003,1.8104,1.8057,1.8164,1.8174,1.8211,1.8229,1.8234,1.824,1.8255,1.8256,1.8438,1.8439,0,0,1.7994,1.7992,1.805,1.8063,1.8046,1.8054,1.8061,1.817,1.819,1.8229,1.8237,1.8242,1.8256,1.8257,1.8437,1.8438,0,0,0,1.7979,1.7988,1.801,1.8058,1.8076,1.8057,1.8065,1.8185,1.8192,1.8238,1.8244,1.8257,1.8259,1.8436,1.8438,1.8481,0,0,0,1.7975,1.7979,1.8008,1.8008,1.8074,1.8131,1.8077,1.8184,1.8197,1.8243,1.8257,1.826,1.8435,1.8437,1.8477,1.8501,0,0,0,1.7964,1.7978,1.7994,1.8008,1.8051,1.813,1.8143,1.8187,1.82,1.8255,1.826,1.8435,1.8437,1.8474,1.8496,1.8548,0,0,0,1.7952,1.8032,1.7994,1.8087,1.8051,1.8155,1.8142,1.8221,1.8273,1.8258,1.8435,1.8438,1.8473,1.8493,1.8544,1.859,1.8609,0,0,1.8053,1.8044,1.8099,1.8068,1.8178,1.8139,1.8257,1.8307,1.8315,1.8397,1.8402,1.8478,1.8496,1.8547,1.8716,1.8731,0,0,0,1.813,1.8169,1.8199,1.8247,1.8286,1.8321,1.8354,1.8372,1.8441,1.8356,1.8511,1.8522,1.8552,1.8574,1.8586,1.8612,1.8448,1.8447,1.8447,1.8271,1.8275,1.8365,1.838,1.8428,1.8459,1.8498,1.8528,1.852,1.8557,1.8581,1.8683,1.8708,1.8718,1.8744,1.8606,1.8606,1.8606,1.8606,1.8418,1.8473,1.8459,1.854,1.8544,1.8614,1.8647,1.8639,1.8704,1.8665,1.8692,1.8648,1.8734,1.8757,1.8609,1.8609,1.8608,1.8608,1.8608,1.851,1.8537,1.8557,1.8625,1.8678,1.8692,1.8755,1.8757,1.876,1.8786,1.8811,1.8811,1.881,1.8798,1.8799,1.8799,1.8799,1.88,1.88,1.8597,1.8617,1.8669,1.8716,1.8746,1.8787,1.8818,1.8849,1.8883,1.888,1.888,1.8868,1.8742,1.8709,1.8805,1.8804,1.8804,1.8803,1.8803,1.8743,1.871,1.879,1.882,1.8875,1.8926,1.8928,1.899,1.9015,1.9046,1.9028,1.8934,1.8927,1.8917,1.889,1.9027,1.9027,1.9027,1.9027,1.882,1.8815,1.8897,1.8945,1.8992,1.9001,1.9091,1.9117,1.9138,1.9154,1.9135,1.91,1.909,1.9088,1.9075,1.9049,1.9224,1.9224,1.9225,1.8909,1.891,1.8986,1.9004,1.9047,1.9084,1.9168,1.9225,1.9243,1.9233,1.9167,1.9159,1.9102,1.9083,1.9071,1.905,1.9004,0,0]},{"header":{"parameterUnit":"m.s-1","parameterCategory":1,"la1":30.2992,"la2":30.254,"lo1":-89.0895,"lo2":-89.0443,"dy":0.0025,"dx":0.0025,"nx":19,"ny":19,"refTime":"2026-04-29T09:00:00:Z","depth":0,"parameterNumber":3,"parameterNumberName":"V-component_of_WINDS"},"data":[0,0,0,1.6751,1.675,1.6701,1.6701,1.665,1.6649,0,0,0,0,0,0,0,0,0,0,0,1.6774,1.6774,1.6751,1.675,1.6701,1.6701,1.665,1.6649,0,0,0,0,0,0,0,0,0,0,0,1.6774,1.6774,1.6774,1.675,1.6701,1.6701,1.665,1.6683,0,0,0,0,0,0,0,0,0,0,1.6728,1.6758,1.6774,1.6774,1.675,1.6701,1.6701,1.6684,1.6681,1.6678,0,1.6678,0,1.6663,1.6647,1.6647,0,0,0,1.6744,1.6761,1.674,1.6774,1.675,1.6701,1.6721,1.6682,1.6678,1.6673,1.6677,1.6675,1.6662,1.6647,1.6646,1.6652,1.6653,0,0,1.6747,1.677,1.6743,1.6738,1.6748,1.6723,1.672,1.6679,1.6685,1.6677,1.6673,1.6661,1.6646,1.6646,1.6652,1.6652,0,0,0,1.6759,1.6772,1.6752,1.6741,1.6731,1.6722,1.6718,1.6687,1.6678,1.6673,1.6661,1.6646,1.6646,1.6652,1.6652,1.6691,0,0,0,1.676,1.6779,1.6753,1.6767,1.6732,1.6708,1.6727,1.6681,1.6676,1.6661,1.6646,1.6645,1.6651,1.6652,1.6689,1.6706,0,0,0,1.6775,1.6781,1.6776,1.6768,1.6748,1.6708,1.6697,1.6679,1.6669,1.6647,1.6645,1.6651,1.6652,1.6688,1.6703,1.6714,0,0,0,1.6797,1.6812,1.6777,1.679,1.6749,1.6733,1.6697,1.6685,1.667,1.6646,1.6651,1.6652,1.6687,1.6701,1.6713,1.6728,1.6737,0,0,1.6829,1.6817,1.6822,1.6789,1.6787,1.6739,1.6741,1.6706,1.6682,1.6663,1.6663,1.669,1.6703,1.6714,1.6777,1.6784,0,0,0,1.684,1.6844,1.6838,1.6826,1.6799,1.6778,1.674,1.6726,1.6709,1.6677,1.6696,1.6703,1.6709,1.6715,1.6721,1.6724,1.6656,1.6656,1.6656,1.6919,1.6888,1.6894,1.6857,1.6846,1.6806,1.6793,1.6768,1.674,1.6745,1.674,1.6782,1.679,1.6794,1.6798,1.6745,1.6745,1.6745,1.6745,1.6963,1.6964,1.6926,1.6919,1.6886,1.6879,1.684,1.6821,1.6809,1.6783,1.6787,1.6762,1.6803,1.6804,1.6748,1.6748,1.6747,1.6747,1.6747,1.7012,1.7007,1.6991,1.6969,1.6956,1.6917,1.6907,1.6877,1.6848,1.6851,1.6842,1.6841,1.6837,1.6849,1.6849,1.6849,1.6849,1.6849,1.685,1.7069,1.7049,1.7046,1.7018,1.7006,1.6986,1.6945,1.6932,1.6909,1.6887,1.6887,1.6859,1.6813,1.6802,1.6852,1.6851,1.6851,1.6851,1.6851,1.7127,1.7108,1.7103,1.709,1.7055,1.7044,1.7004,1.698,1.6964,1.696,1.693,1.6901,1.6886,1.6881,1.6872,1.6937,1.6937,1.6937,1.6937,1.7168,1.7157,1.7144,1.7126,1.7105,1.7069,1.7062,1.703,1.6994,1.6982,1.6968,1.6953,1.6949,1.6936,1.693,1.6921,1.6997,1.6997,1.6997,1.7201,1.7187,1.7188,1.7153,1.7123,1.7097,1.7089,1.7069,1.7024,1.6999,1.6972,1.6969,1.6945,1.6939,1.6914,1.6905,1.6888,0,0]}]]